This is the latest recevied weather packets stored in our database for station/object W4TTU-1. If no packets are shown the sender has not sent any weather packets the latest 10 day(s).
| Time | Temp. | Humidity | Pressure | Rain* | Wind** | Luminosity | Snow |
|---|---|---|---|---|---|---|---|
| 1777814187 | 6.11° C | 29% | 847.3 hPa | 0 mm | - | - | - |
| 1777813286 | 6.11° C | 28% | 847.4 hPa | 0 mm | - | - | - |
| 1777812385 | 5.56° C | 29% | 847.1 hPa | 0 mm | - | - | - |
| 1777811485 | 5.56° C | 28% | 847 hPa | 0 mm | - | - | - |
| 1777810584 | 5.56° C | 29% | 847 hPa | 0 mm | - | - | - |
| 1777809684 | 5.56° C | 28% | 846.9 hPa | 0 mm | - | - | - |
| 1777808783 | 5.56° C | 27% | 846.7 hPa | 0 mm | - | - | - |
| 1777807883 | 5.56° C | 28% | 846.8 hPa | 0 mm | - | - | - |
| 1777806982 | 5.56° C | 27% | 846.9 hPa | 0 mm | - | - | - |
| 1777806082 | 5.56° C | 28% | 847 hPa | 0 mm | - | - | - |
| 1777805181 | 5.56° C | 28% | 847 hPa | 0 mm | - | - | - |
| 1777804281 | 5.56° C | 28% | 847 hPa | 0 mm | - | - | - |
| 1777803380 | 6.11° C | 28% | 847.1 hPa | 0 mm | - | - | - |
| 1777802480 | 6.11° C | 27% | 847.1 hPa | 0 mm | - | - | - |
| 1777801584 | 6.11° C | 27% | 847.1 hPa | 0 mm | - | - | - |
| 1777800678 | 6.67° C | 27% | 847.1 hPa | 0 mm | - | - | - |
| 1777799778 | 6.67° C | 28% | 847.1 hPa | 0 mm | - | - | - |
| 1777798877 | 7.22° C | 28% | 847.1 hPa | 0 mm | - | - | - |
| 1777797977 | 7.78° C | 28% | 847.1 hPa | 0 mm | - | - | - |
| 1777797076 | 7.78° C | 28% | 847.1 hPa | 0 mm | - | - | - |
| 1777796176 | 8.33° C | 27% | 847.1 hPa | 0 mm | - | - | - |
| 1777795275 | 8.33° C | 28% | 847.1 hPa | 0 mm | - | - | - |
| 1777794377 | 8.89° C | 27% | 847.2 hPa | 0 mm | - | - | - |
| 1777793474 | 9.44° C | 26% | 847.1 hPa | 0 mm | - | - | - |
| 1777792574 | 10° C | 27% | 847.1 hPa | 0 mm | - | - | - |
* Rain since midnight (hover to see other rain measurements)
** Current wind speed in m/s (hover to see current wind gust speed)